Location: *
(50.5492°N, 7.7469°E)
Time: 23:33:49
(UTC+00:00)

BREEZE-M DEB (TANK) - Pass Details

Date: 21 October 2019
Orbit: 669 x 22260 km, 51.1° (Epoch: 11 November)

Event Time Altitude Azimuth Distance (km) Brightness Sun altitude
Rises 17:59:42 0° 287° (WNW) 3,078 7.7 -15.6°
Reaches altitude 10° 18:01:22 10° 283° (WNW) 2,316 6.8 -15.9°
Maximum altitude 18:05:49 60° 203° (SSW) 1,331 4.3 -16.6°
Enters shadow 18:18:41 11° 127° (SE) 6,412 7.2 -18.6°
